Home   Weather   Charleston   Past weeks

Flag for USA Past Weather in Charleston, South Carolina, USA — Yesterday and Last 2 Weeks

Now
48 °F

Passing clouds.


Feels Like: 48 °F
Forecast: 50 / 74 °F
Wind: No wind

Location: Charleston Air Force Base Reporting Station

Current Time: Feb 19, 2017 at 6:55:15 am

Latest Report: Feb 19, 2017 at 5:56 am


Visibility: 9 mi

Pressure: 29.97 "Hg

Humidity: 89%

Dew Point: 45 °F

Location of CharlestonLocation

Past Weather in Charleston — Graph

°F

Charleston Temperature Yesterday

Maximum temperature yesterday: 70 °F (at 11:56 am)
Minimum temperature yesterday: 48 °F (at 3:56 am)
Average temperature yesterday: 59 °F

High & Low Weather Summary for the Past Weeks

 TemperatureHumidityPressure
High78 °F (Feb 12, 4:56 pm)100% (Feb 6, 7:56 am)30.50 "Hg (Feb 6, 7:56 am)
Low34 °F (Feb 10, 6:56 am)13% (Feb 13, 2:56 pm)29.53 "Hg (Feb 15, 1:56 pm)
Average56 °F64%30.03 "Hg
* Reported Feb 4 4:56 am — Feb 19 4:56 am, Charleston, Weather by CustomWeather, © 2017

Note: Actual official high and low records may vary slightly from our data, if they occured in-between our weather recording intervals... More about our weather records

Advertising

Charleston Weather History for the Previous 24 Hours

Scroll right to see more
 ConditionsComfort  
Time TempWeatherWind HumidityBarometerVisibility
4:56 am
Sun, Feb 19
49 °FPassing clouds.3 mph84%29.96 "Hg10 mi
3:56 am50 °FPassing clouds.5 mph80%29.94 "Hg8 mi
2:56 am50 °FPassing clouds.No wind77%29.93 "Hg8 mi
1:56 am49 °FPassing clouds.7 mph84%29.94 "Hg7 mi
12:56 am53 °FPassing clouds.8 mph74%29.96 "Hg8 mi
11:56 pm
Sat, Feb 18
54 °FClear.3 mph83%29.98 "Hg7 mi
10:56 pm53 °FPassing clouds.6 mph83%29.97 "Hg7 mi
9:56 pm56 °FPassing clouds.No wind75%29.97 "Hg10 mi
8:56 pm57 °FClear.3 mph72%29.97 "Hg10 mi
7:56 pm57 °FPassing clouds.5 mph72%29.96 "Hg10 mi
6:56 pm62 °FPassing clouds.3 mph60%29.94 "Hg10 mi
5:56 pm64 °FBroken clouds.6 mph50%29.93 "Hg10 mi
4:56 pm67 °FMostly cloudy.5 mph44%29.95 "Hg10 mi
3:56 pm69 °FMore clouds than sun.7 mph35%29.96 "Hg10 mi
2:56 pm70 °FMore clouds than sun.10 mph34%29.98 "Hg10 mi
1:56 pm69 °FMostly cloudy.12 mph33%29.98 "Hg10 mi
12:56 pm69 °FMostly cloudy.14 mph35%30.01 "Hg10 mi
11:56 am70 °FMostly cloudy.8 mph34%30.01 "Hg10 mi
10:56 am66 °FBroken clouds.No wind40%30.02 "Hg10 mi
9:56 am63 °FBroken clouds.No wind52%30.03 "Hg10 mi
8:56 am56 °FScattered clouds.3 mph75%30.03 "Hg10 mi
7:56 am52 °FScattered clouds.No wind80%30.02 "Hg10 mi
6:56 am50 °FPassing clouds.5 mph83%30.01 "Hg10 mi
Weather by CustomWeather, © 2017

See weather overviewHow to use our weather pages